Hlavní strana
METAR-TAF:

METAR-TAF

Letiště :

Watauga County Hospital Heliport

Boone, Severní Karolína, Spojené státy americké

zeměpisná šířka: 36-12N, zeměpisná délka: 081-39W, výška: 959 m

Aktuální stav počasí

Zpráva byla vytvořena před 18 minutami, v 08:35 UTC
Západoseverozápadní vítr 16 kt s nárazy do 21 kt
Teplota 12°C
Vlhkost vzduchu 44%
Tlak 1019 hPa
Viditelnost: 16.1 km

METAR: KTNB 300835Z AUTO 30016G21KT 10SM 12/00 A3009 RMK AO2 T01170000

Čas: 04:53 (08:53 UTC)


TAF: chybějící

Stav a předpovědi počasí z více než 4 000 letišť (zprávy METAR a TAF).

Červené a žluté tečky na mapě představují dostupné meteorologické stanice.

Když kurzor umístíte na tečku, zobrazí se název stanice.

Pak kliknutím zobrazíte stav a předpověď počasí.

Chcete-li změnit mapu, kliknutím na zelené tlačítko se znaménkem +mapu přiblížíte, kliknutím na zelené tlačítko se znaménkem – mapu oddálíte a kliknutím na zelené šipky přejdete na sousední mapy.


METAR-TAF: